Banff, Alberta

6:42 PM MDT on August 19, 2017 (GMT -0600)
Banff

Weather History for CWZG - June, 2014

Change the Weather History Date:

Friday, June 27, 2014

  Actual Average Record
Temperature  
Mean Temperature 56 °F -  
Max Temperature 69 °F - - ()
Min Temperature 42 °F - - ()
Degree Days  
Heating Degree Days 10    
Growing Degree Days 6 (Base 50)    
Moisture  
Dew Point 42 °F    
Average Humidity 68    
Maximum Humidity 93    
Minimum Humidity 34    
Precipitation  
Precipitation 0.01 in - - ()
Sea Level Pressure  
Sea Level Pressure 29.69 in    
Wind  
Wind Speed 4 mph ()    
Max Wind Speed 12 mph    
Max Gust Speed 18 mph    
T = Trace of Precipitation, MM = Missing Value Source: Averaged Metar Reports

Daily Weather History Graph

Daily Weather History Graph

Search for Another Location

Airport or City:

Trip Planner

Search our weather history database for the weather conditions in past years. The results will help you decide how hot, cold, wet, or windy it might be!

Date:

Astronomy

Jun. 27, 2014 Rise Set
Actual Time 5:28 AM MDT 10:01 PM MDT
Civil Twilight 4:41 AM MDT 10:48 PM MDT
Nautical Twilight 3:30 AM MDT 12:00 AM MDT
Astronomical Twilight 2:17 AM MDT 1:12 AM MDT
Moon 6:15 AM MDT (6/27) 9:55 PM MDT (6/27)
Length of Visible Light 18h 06m
Length of Day
16h 33m
New Moon, 0% of the Moon is Illuminated
Jun 27
New Moon
Jul 5
First Quarter
Jul 12
Full
Jul 18
Last Quarter
Jul 26
New

Hourly Weather History & Observations

Time (MDT) Temp. Windchill Dew Point Humidity Pressure Visibility Wind Dir Wind Speed Gust Speed Precip Events Conditions
12:00 AM 53.4 °F - 46.0 °F 76% 29.71 in - ENE 4.6 mph - N/A   Unknown
1:00 AM 49.8 °F - 43.9 °F 80% 29.72 in - NNE 3.5 mph - N/A   Unknown
2:00 AM 45.3 °F - 41.9 °F 88% 29.72 in - Calm Calm - N/A   Unknown
3:00 AM 42.6 °F - 40.8 °F 93% 29.73 in - Calm Calm - N/A   Unknown
4:00 AM 43.3 °F - 40.3 °F 89% 29.72 in - West 2.3 mph - N/A   Unknown
5:00 AM 43.3 °F 41.7 °F 39.0 °F 85% 29.71 in - SW 3.5 mph - N/A   Unknown
6:00 AM 42.3 °F 40.5 °F 37.9 °F 85% 29.72 in - SSW 3.5 mph - N/A   Unknown
7:00 AM 44.8 °F 41.0 °F 38.5 °F 79% 29.72 in - SW 6.9 mph - N/A   Unknown
8:00 AM 48.4 °F - 38.8 °F 70% 29.72 in - WSW 5.8 mph - N/A   Unknown
9:00 AM 53.6 °F - 40.6 °F 62% 29.70 in - SW 6.9 mph - N/A   Unknown
10:00 AM 55.6 °F - 41.5 °F 59% 29.69 in - WSW 5.8 mph - N/A   Unknown
11:00 AM 62.1 °F - 41.7 °F 47% 29.65 in - WSW 4.6 mph - N/A   Unknown
12:00 PM 62.1 °F - 44.2 °F 52% 29.64 in - South 2.3 mph - N/A   Unknown
1:00 PM 64.6 °F - 40.3 °F 41% 29.63 in - ESE 5.8 mph - N/A   Unknown
2:00 PM 65.1 °F - 38.8 °F 38% 29.63 in - SSW 6.9 mph - N/A   Unknown
3:00 PM 66.7 °F - 38.3 °F 35% 29.64 in - WSW 6.9 mph - N/A   Unknown
4:00 PM 69.3 °F - 39.4 °F 34% 29.61 in - SW 6.9 mph - N/A   Unknown
5:00 PM 65.3 °F - 41.0 °F 41% 29.61 in - WSW 6.9 mph - N/A   Unknown
6:00 PM 61.3 °F - 43.9 °F 53% 29.67 in - WSW 8.1 mph 17.3 mph N/A   Unknown
7:00 PM 55.9 °F - 44.8 °F 66% 29.71 in - SW 11.5 mph 18.4 mph N/A   Unknown
8:00 PM 51.6 °F - 48.6 °F 89% 29.73 in - WSW 5.8 mph - N/A   Unknown
9:00 PM 51.3 °F - 48.4 °F 90% 29.72 in - SW 5.8 mph - 0.01 in   Unknown
10:00 PM 51.1 °F - 47.5 °F 87% 29.71 in - SW 5.8 mph - N/A   Unknown
11:00 PM 50.7 °F - 47.8 °F 90% 29.70 in - WSW 4.6 mph - N/A   Unknown